| time (UTC) | temp F | wind direction | speed MPH | gust MPH | rain 1hr in | rain 24hr in | rain mn in | humidity % | barometer mb |
| 20260831170001 | 76 | 242 | 3.0 | 9.0 | 0.00 | 0.00 | 0.00 | 49 | 1015.8 |
| 20260831164620 | 76 | 194 | 4.0 | 8.0 | 0.00 | 0.00 | 0.00 | 52 | 1016.0 |
| 20260831163057 | 75 | 5 | 3.0 | 7.0 | 0.00 | 0.00 | 0.00 | 52 | 1016.1 |
| 20260831161556 | 75 | 224 | 2.0 | 6.0 | 0.00 | 0.00 | 0.00 | 48 | 1016.2 |
| 20260831160053 | 74 | 276 | 4.0 | 7.0 | 0.00 | 0.00 | 0.00 | 50 | 1016.3 |
| 20260831154552 | 74 | 263 | 2.0 | 6.0 | 0.00 | 0.00 | 0.00 | 52 | 1016.2 |
| 20260831153047 | 73 | 68 | 3.0 | 8.0 | 0.00 | 0.00 | 0.00 | 54 | 1016.4 |
| 20260831151550 | 71 | 317 | 1.0 | 6.0 | 0.00 | 0.00 | 0.00 | 62 | 1016.5 |
| 20260831150044 | 70 | 95 | 1.0 | 5.0 | 0.00 | 0.00 | 0.00 | 59 | 1016.6 |
| 20260831144536 | 68 | 338 | 3.0 | 8.0 | 0.00 | 0.00 | 0.00 | 62 | 1016.6 |
| 20260831143031 | 67 | 288 | 2.0 | 6.0 | 0.00 | 0.00 | 0.00 | 64 | 1016.8 |
| 20260831141528 | 66 | 269 | 2.0 | 6.0 | 0.00 | 0.00 | 0.00 | 67 | 1016.8 |
| 20260831140024 | 64 | 325 | 2.0 | 6.0 | 0.00 | 0.00 | 0.00 | 71 | 1016.7 |
| 20260831134521 | 63 | 196 | 3.0 | 6.0 | 0.00 | 0.00 | 0.00 | 74 | 1016.6 |
| 20260831133017 | 62 | 344 | 0.0 | 0.0 | 0.00 | 0.00 | 0.00 | 78 | 1016.5 |
| 20260831131518 | 60 | 344 | 0.0 | 0.0 | 0.00 | 0.00 | 0.00 | 80 | 1016.5 |
| 20260831130018 | 60 | 344 | 0.0 | 0.0 | 0.00 | 0.00 | 0.00 | 82 | 1016.5 |
| 20260831124512 | 59 | 5 | 0.0 | 0.0 | 0.00 | 0.00 | 0.00 | 83 | 1016.5 |
| 20260831123011 | 58 | 5 | 0.0 | 2.0 | 0.00 | 0.00 | 0.00 | 85 | 1016.4 |
| 20260831121510 | 58 | 5 | 0.0 | 0.0 | 0.00 | 0.00 | 0.00 | 87 | 1016.3 |
| 20260831120016 | 57 | 5 | 0.0 | 4.0 | 0.00 | 0.00 | 0.00 | 88 | 1016.1 |
| 20260831114523 | 57 | 5 | 0.0 | 4.0 | 0.00 | 0.00 | 0.00 | 89 | 1016.0 |
| 20260831113007 | 57 | 22 | 0.0 | 2.0 | 0.00 | 0.00 | 0.00 | 89 | 1016.0 |
| 20260831111506 | 57 | 21 | 0.0 | 2.0 | 0.00 | 0.00 | 0.00 | 89 | 1015.7 |
| 20260831110005 | 57 | 326 | 0.0 | 1.0 | 0.00 | 0.00 | 0.00 | 89 | 1015.6 |
| 20260831104504 | 57 | 326 | 0.0 | 5.0 | 0.00 | 0.00 | 0.00 | 89 | 1015.5 |
| 20260831103002 | 57 | 329 | 1.0 | 5.0 | 0.00 | 0.00 | 0.00 | 89 | 1015.4 |
| 20260831101553 | 57 | 333 | 2.0 | 6.0 | 0.00 | 0.00 | 0.00 | 89 | 1015.4 |
| 20260831100055 | 57 | 337 | 1.0 | 4.0 | 0.00 | 0.00 | 0.00 | 88 | 1015.4 |
| 20260831094550 | 57 | 348 | 0.0 | 1.0 | 0.00 | 0.00 | 0.00 | 88 | 1015.2 |
| 20260831093052 | 58 | 347 | 0.0 | 6.0 | 0.00 | 0.00 | 0.00 | 88 | 1014.9 |
| 20260831091548 | 58 | 338 | 0.0 | 7.0 | 0.00 | 0.00 | 0.00 | 88 | 1014.9 |
| 20260831090047 | 58 | 338 | 1.0 | 5.0 | 0.00 | 0.00 | 0.00 | 87 | 1014.8 |
| 20260831084544 | 58 | 324 | 0.0 | 0.0 | 0.00 | 0.00 | 0.00 | 87 | 1014.6 |
| 20260831083043 | 59 | 324 | 0.0 | 2.0 | 0.00 | 0.00 | 0.00 | 86 | 1014.5 |
| 20260831081541 | 59 | 323 | 0.0 | 4.0 | 0.00 | 0.00 | 0.00 | 85 | 1014.4 |
| 20260831080042 | 59 | 302 | 1.0 | 6.0 | 0.00 | 0.00 | 0.00 | 85 | 1014.4 |
| 20260831074538 | 60 | 317 | 1.0 | 4.0 | 0.00 | 0.00 | 0.00 | 85 | 1014.3 |
| 20260831073035 | 60 | 252 | 0.0 | 2.0 | 0.00 | 0.00 | 0.00 | 85 | 1014.3 |
| 20260831071534 | 61 | 252 | 0.0 | 2.0 | 0.00 | 0.00 | 0.00 | 86 | 1014.2 |
| 20260831070037 | 61 | 251 | 0.0 | 6.0 | 0.00 | 0.00 | 0.00 | 86 | 1014.3 |
| 20260831064530 | 61 | 300 | 0.0 | 5.0 | 0.00 | 0.00 | 0.00 | 86 | 1014.1 |
| 20260831063030 | 61 | 298 | 0.0 | 4.0 | 0.00 | 0.00 | 0.00 | 87 | 1014.0 |
| 20260831061527 | 62 | 301 | 0.0 | 2.0 | 0.00 | 0.00 | 0.00 | 86 | 1014.3 |
| 20260831060026 | 63 | 325 | 0.0 | 4.0 | 0.00 | 0.00 | 0.00 | 85 | 1014.0 |
| 20260831054522 | 63 | 325 | 0.0 | 3.0 | 0.00 | 0.00 | 0.00 | 84 | 1014.0 |
| 20260831053022 | 64 | 325 | 0.0 | 5.0 | 0.00 | 0.00 | 0.00 | 84 | 1013.9 |
| 20260831051517 | 64 | 296 | 0.0 | 0.0 | 0.00 | 0.00 | 0.00 | 83 | 1013.8 |
| 20260831050017 | 65 | 296 | 0.0 | 5.0 | 0.00 | 0.00 | 0.00 | 82 | 1013.8 |
| 20260831044513 | 65 | 317 | 3.0 | 7.0 | 0.00 | 0.00 | 0.00 | 81 | 1013.7 |
| 20260831043011 | 66 | 301 | 3.0 | 8.0 | 0.00 | 0.00 | 0.00 | 81 | 1013.3 |
| 20260831041511 | 66 | 284 | 1.0 | 3.0 | 0.00 | 0.00 | 0.00 | 79 | 1013.3 |
| 20260831040007 | 67 | 302 | 2.0 | 5.0 | 0.00 | 0.00 | 0.00 | 78 | 1013.3 |
| 20260831034505 | 67 | 266 | 1.0 | 8.0 | 0.00 | 0.00 | 0.00 | 77 | 1013.4 |
| 20260831033010 | 68 | 312 | 1.0 | 6.0 | 0.00 | 0.00 | 0.00 | 76 | 1013.3 |
| 20260831031516 | 68 | 314 | 4.0 | 9.0 | 0.00 | 0.00 | 0.00 | 76 | 1013.3 |
| 20260831030005 | 69 | 238 | 4.0 | 9.0 | 0.00 | 0.00 | 0.00 | 75 | 1013.5 |
| 20260831024504 | 69 | 322 | 2.0 | 9.0 | 0.00 | 0.00 | 0.00 | 74 | 1013.5 |
| 20260831023003 | 70 | 329 | 5.0 | 9.0 | 0.00 | 0.00 | 0.00 | 73 | 1013.2 |
| 20260831021509 | 70 | 317 | 3.0 | 8.0 | 0.00 | 0.00 | 0.00 | 73 | 1013.3 |
| 20260831020004 | 70 | 295 | 4.0 | 14.0 | 0.00 | 0.00 | 0.00 | 73 | 1013.3 |
| 20260831014502 | 70 | 237 | 5.0 | 9.0 | 0.00 | 0.00 | 0.00 | 73 | 1013.2 |
| 20260831013002 | 70 | 294 | 2.0 | 8.0 | 0.00 | 0.00 | 0.00 | 73 | 1013.1 |
| 20260831011502 | 70 | 279 | 2.0 | 10.0 | 0.00 | 0.00 | 0.00 | 73 | 1012.8 |
| 20260831010001 | 70 | 256 | 3.0 | 11.0 | 0.00 | 0.00 | 0.00 | 74 | 1012.7 |
| 20260831004600 | 70 | 281 | 4.0 | 12.0 | 0.00 | 0.00 | 0.00 | 74 | 1012.4 |
| 20260831003103 | 70 | 242 | 4.0 | 11.0 | 0.00 | 0.00 | 0.00 | 73 | 1012.1 |
| 20260831001608 | 71 | 242 | 6.0 | 13.0 | 0.00 | 0.00 | 0.00 | 71 | 1012.1 |
| 20260830234603 | 71 | 213 | 4.0 | 10.0 | 0.00 | 0.00 | 0.00 | 69 | 1011.7 |
| 20260830233058 | 71 | 274 | 5.0 | 8.0 | 0.00 | 0.00 | 0.00 | 68 | 1011.7 |
| 20260830231558 | 72 | 232 | 3.0 | 8.0 | 0.00 | 0.00 | 0.00 | 67 | 1011.7 |
| 20260830230057 | 72 | 217 | 4.0 | 9.0 | 0.00 | 0.00 | 0.00 | 66 | 1011.7 |
| 20260830224558 | 72 | 202 | 3.0 | 6.0 | 0.00 | 0.00 | 0.00 | 65 | 1011.9 |
| 20260830223055 | 73 | 198 | 4.0 | 7.0 | 0.00 | 0.00 | 0.00 | 63 | 1012.1 |
| 20260830221554 | 73 | 185 | 2.0 | 8.0 | 0.00 | 0.00 | 0.00 | 62 | 1012.0 |
| 20260830220058 | 73 | 238 | 3.0 | 7.0 | 0.00 | 0.00 | 0.00 | 61 | 1012.2 |
| 20260830214614 | 74 | 209 | 6.0 | 11.0 | 0.00 | 0.00 | 0.00 | 59 | 1012.2 |
| 20260830213054 | 75 | 227 | 6.0 | 12.0 | 0.00 | 0.00 | 0.00 | 57 | 1012.1 |
| 20260830211557 | 75 | 239 | 6.0 | 12.0 | 0.00 | 0.00 | 0.00 | 55 | 1012.1 |
| 20260830210053 | 76 | 251 | 7.0 | 15.0 | 0.00 | 0.00 | 0.00 | 55 | 1012.3 |
| 20260830204550 | 77 | 236 | 3.0 | 8.0 | 0.00 | 0.00 | 0.00 | 55 | 1012.3 |
| 20260830203053 | 78 | 242 | 2.0 | 7.0 | 0.00 | 0.00 | 0.00 | 55 | 1012.3 |
| 20260830201549 | 78 | 233 | 4.0 | 11.0 | 0.00 | 0.00 | 0.00 | 54 | 1012.6 |
| 20260830200058 | 77 | 242 | 6.0 | 10.0 | 0.00 | 0.00 | 0.00 | 53 | 1012.7 |
| 20260830194548 | 77 | 258 | 7.0 | 15.0 | 0.00 | 0.00 | 0.00 | 51 | 1012.8 |
| 20260830193109 | 77 | 290 | 3.0 | 9.0 | 0.00 | 0.00 | 0.00 | 57 | 1013.0 |
| 20260830191545 | 77 | 248 | 1.0 | 6.0 | 0.00 | 0.00 | 0.00 | 57 | 1013.2 |
| 20260830190043 | 77 | 255 | 4.0 | 7.0 | 0.00 | 0.00 | 0.00 | 55 | 1013.3 |
| 20260830184542 | 77 | 265 | 4.0 | 9.0 | 0.00 | 0.00 | 0.00 | 54 | 1013.3 |
| 20260830183041 | 77 | 299 | 5.0 | 10.0 | 0.00 | 0.00 | 0.00 | 54 | 1013.5 |
| 20260830181540 | 77 | 230 | 6.0 | 14.0 | 0.00 | 0.00 | 0.00 | 55 | 1013.8 |
| 20260830180039 | 76 | 223 | 3.0 | 7.0 | 0.00 | 0.00 | 0.00 | 60 | 1013.9 |
| 20260830174540 | 75 | 317 | 1.0 | 5.0 | 0.00 | 0.00 | 0.00 | 63 | 1014.0 |
| 20260830173049 | 74 | 313 | 2.0 | 5.0 | 0.00 | 0.00 | 0.00 | 65 | 1014.3 |
| 20260830171528 | 74 | 11 | 1.0 | 5.0 | 0.00 | 0.00 | 0.00 | 65 | 1014.2 |